This is the latest recevied weather packets stored in our database for station/object IZ4UFQ-10. If no packets are shown the sender has not sent any weather packets the latest 1 day(s).
| Time | Temp. | Humidity | Pressure | Rain* | Wind** | Luminosity | Snow |
|---|---|---|---|---|---|---|---|
| 1836274621 | 20° C | 80% | 1024.4 hPa | 0 mm | 0 m/s | 0 W/m² | - |
| 1836274472 | 20° C | 81% | 1024.3 hPa | 0 mm | 0 m/s | 0 W/m² | - |
| 1836274321 | 20° C | 80% | 1024.4 hPa | 0 mm | 0 m/s | 0 W/m² | - |
| 1836274171 | 20° C | 80% | 1024.4 hPa | 0 mm | 0 m/s | 0 W/m² | - |
| 1836274021 | 20° C | 80% | 1024.4 hPa | 0 mm | 0 m/s | 0 W/m² | - |
| 1778008609 | 17.78° C | 83% | 1011.8 hPa | 0 mm | 0 m/s | 0 W/m² | - |
| 1778008309 | 17.78° C | 82% | 1011.8 hPa | 0 mm | 0 m/s | 0 W/m² | - |
| 1778008008 | 17.78° C | 82% | 1011.7 hPa | 0 mm | 0 m/s | 0 W/m² | - |
| 1778007708 | 18.33° C | 81% | 1011.7 hPa | 0 mm | 0 m/s | 0 W/m² | - |
| 1778007408 | 18.33° C | 81% | 1011.6 hPa | 0 mm | 0 m/s | 0 W/m² | - |
| 1778007107 | 18.33° C | 81% | 1011.6 hPa | 0 mm | 0 m/s | 0 W/m² | - |
| 1778006807 | 18.33° C | 81% | 1011.6 hPa | 0 mm | 0 m/s | 0 W/m² | - |
| 1778006507 | 18.33° C | 81% | 1011.5 hPa | 0 mm | 0 m/s | 0 W/m² | - |
| 1778006207 | 18.33° C | 81% | 1011.5 hPa | 0 mm | 0 m/s | 0 W/m² | - |
| 1778005906 | 18.33° C | 81% | 1011.5 hPa | 0 mm | 0 m/s | 0 W/m² | - |
| 1778005606 | 18.33° C | 81% | 1011.5 hPa | 0 mm | 0 m/s | 0 W/m² | - |
| 1778005306 | 18.33° C | 81% | 1011.5 hPa | 0 mm | 0 m/s | 0 W/m² | - |
| 1778005005 | 18.33° C | 81% | 1011.5 hPa | 0 mm | 0 m/s | 0 W/m² | - |
| 1778004705 | 18.33° C | 81% | 1011.5 hPa | 0 mm | 0 m/s | 5 W/m² | - |
| 1778004405 | 18.89° C | 81% | 1011.5 hPa | 0 mm | 0 m/s | 7 W/m² | - |
| 1778004105 | 18.89° C | 81% | 1011.4 hPa | 0 mm | 0 m/s | 11 W/m² | - |
| 1778003804 | 18.89° C | 81% | 1011.4 hPa | 0 mm | 0 m/s | 12 W/m² | - |
| 1778003504 | 18.89° C | 81% | 1011.3 hPa | 0 mm | 0 m/s | 21 W/m² | - |
| 1778003204 | 18.89° C | 80% | 1011.3 hPa | 0 mm | 0 m/s | 32 W/m² | - |
| 1778002903 | 18.89° C | 80% | 1011.2 hPa | 0 mm | 0 m/s | 35 W/m² | - |
* Rain latest hour (hover to see other rain measurements)
** Current wind speed in m/s (hover to see current wind gust speed)